This is the latest recevied weather packets stored in our database for station/object OK1FET-16. If no packets are shown the sender has not sent any weather packets the latest 10 day(s).
| Time | Temp. | Humidity | Pressure | Rain* | Wind** | Luminosity | Snow |
|---|---|---|---|---|---|---|---|
| 1787650017 | 25.56° C | 48% | 1067.8 hPa | - | - | - | - |
| 1787649475 | 25° C | 49% | 1067.9 hPa | - | - | - | - |
| 1787649204 | 23.89° C | 49% | 1067.8 hPa | - | - | - | - |
| 1787648662 | 23.89° C | 50% | 1067.9 hPa | - | - | - | - |
| 1787648391 | 23.89° C | 51% | 1067.8 hPa | - | - | - | - |
| 1787648119 | 23.89° C | 50% | 1067.7 hPa | - | - | - | - |
| 1787647848 | 25° C | 50% | 1067.6 hPa | - | - | - | - |
| 1787647306 | 26.11° C | 50% | 1067.6 hPa | - | - | - | - |
| 1787647034 | 27.22° C | 50% | 1067.6 hPa | - | - | - | - |
| 1787646762 | 28.33° C | 49% | 1067.8 hPa | - | - | - | - |
| 1787646491 | 28.89° C | 49% | 1067.8 hPa | - | - | - | - |
| 1787646219 | 29.44° C | 49% | 1067.7 hPa | - | - | - | - |
| 1787645947 | 28.89° C | 50% | 1067.9 hPa | - | - | - | - |
| 1787645676 | 28.89° C | 50% | 1067.8 hPa | - | - | - | - |
| 1787645404 | 28.33° C | 50% | 1067.9 hPa | - | - | - | - |
| 1787644861 | 27.78° C | 51% | 1067.9 hPa | - | - | - | - |
| 1787644319 | 26.11° C | 52% | 1067.8 hPa | - | - | - | - |
| 1787644048 | 25.56° C | 52% | 1067.9 hPa | - | - | - | - |
| 1787643777 | 24.44° C | 54% | 1068 hPa | - | - | - | - |
| 1787643506 | 23.89° C | 54% | 1067.9 hPa | - | - | - | - |
| 1787643235 | 22.78° C | 55% | 1067.9 hPa | - | - | - | - |
| 1787642965 | 22.22° C | 55% | 1068 hPa | - | - | - | - |
| 1787642694 | 21.11° C | 56% | 1068 hPa | - | - | - | - |
| 1787642424 | 20.56° C | 57% | 1068 hPa | - | - | - | - |
| 1787642153 | 19.44° C | 58% | 1067.8 hPa | - | - | - | - |
* Rain since midnight (hover to see other rain measurements)
** Current wind speed in m/s (hover to see current wind gust speed)